| time (UTC) | temp F | wind direction | speed MPH | gust MPH | rain 1hr in | rain 24hr in | rain mn in | humidity % | barometer mb |
| 20260906070045 | 59 | 178 | 8.0 | 9.0 | 0.00 | 0.00 | 0.00 | 87 | 1027.6 |
| 20260906065022 | 58 | 190 | 7.0 | 8.0 | 0.00 | 0.00 | 0.00 | 88 | 1027.6 |
| 20260906064020 | 57 | 181 | 5.0 | 8.0 | 0.00 | 0.00 | 0.00 | 90 | 1027.6 |
| 20260906063017 | 56 | 154 | 6.0 | 8.0 | 0.00 | 0.00 | 0.00 | 92 | 1027.5 |
| 20260906062045 | 55 | 0.0 | 0.0 | 0.00 | 0.00 | 0.00 | 92 | 1027.6 | |
| 20260906061042 | 55 | 191 | 0.0 | 1.0 | 0.00 | 0.00 | 0.00 | 93 | 1027.7 |
| 20260906060059 | 54 | 0.0 | 0.0 | 0.00 | 0.00 | 0.00 | 93 | 1027.6 | |
| 20260906055037 | 54 | 0.0 | 0.0 | 0.00 | 0.00 | 0.00 | 94 | 1027.6 | |
| 20260906054034 | 53 | 0.0 | 0.0 | 0.00 | 0.00 | 0.00 | 95 | 1027.6 | |
| 20260906053031 | 53 | 0.0 | 0.0 | 0.00 | 0.00 | 0.00 | 95 | 1027.6 | |
| 20260906052029 | 52 | 0.0 | 0.0 | 0.00 | 0.00 | 0.00 | 96 | 1027.3 | |
| 20260906051046 | 52 | 0.0 | 0.0 | 0.00 | 0.00 | 0.00 | 96 | 1027.4 | |
| 20260906050024 | 52 | 0.0 | 0.0 | 0.00 | 0.00 | 0.00 | 96 | 1027.1 | |
| 20260906045041 | 52 | 0.0 | 0.0 | 0.00 | 0.00 | 0.00 | 96 | ||
| 20260906044019 | 52 | 0.0 | 0.0 | 0.00 | 0.00 | 0.00 | 96 | 1027.5 | |
| 20260906043016 | 52 | 0.0 | 0.0 | 0.00 | 0.00 | 0.00 | 96 | 1027.3 | |
| 20260906042043 | 52 | 0.0 | 0.0 | 0.00 | 0.00 | 0.00 | 96 | 1027.3 | |
| 20260906041041 | 53 | 0.0 | 0.0 | 0.00 | 0.00 | 0.00 | 96 | 1027.1 | |
| 20260906040038 | 53 | 0.0 | 0.0 | 0.00 | 0.00 | 0.00 | 96 | 1027.3 | |
| 20260906035036 | 53 | 0.0 | 0.0 | 0.00 | 0.00 | 0.00 | 95 | 1027.5 | |
| 20260906034033 | 53 | 0.0 | 0.0 | 0.00 | 0.00 | 0.00 | 96 | 1027.4 | |
| 20260906033030 | 53 | 0.0 | 0.0 | 0.00 | 0.00 | 0.00 | 95 | 1027.4 | |
| 20260906032028 | 53 | 0.0 | 0.0 | 0.00 | 0.00 | 0.00 | 95 | 1027.6 | |
| 20260906031025 | 53 | 0.0 | 0.0 | 0.00 | 0.00 | 0.00 | 95 | 1027.9 | |
| 20260906030023 | 53 | 0.0 | 0.0 | 0.00 | 0.00 | 0.00 | 95 | 1027.8 | |
| 20260906025020 | 53 | 0.0 | 0.0 | 0.00 | 0.00 | 0.00 | 95 | 1027.9 | |
| 20260906024017 | 53 | 0.0 | 0.0 | 0.00 | 0.00 | 0.00 | 94 | 1027.9 | |
| 20260906023044 | 53 | 0.0 | 0.0 | 0.00 | 0.00 | 0.00 | 94 | 1028.2 | |
| 20260906022041 | 53 | 0.0 | 0.0 | 0.00 | 0.00 | 0.00 | 93 | 1028.1 | |
| 20260906021038 | 54 | 0.0 | 0.0 | 0.00 | 0.00 | 0.00 | 93 | 1028.2 | |
| 20260906020034 | 53 | 0.0 | 0.0 | 0.00 | 0.00 | 0.00 | 93 | 1028.2 | |
| 20260906015031 | 54 | 0.0 | 0.0 | 0.00 | 0.00 | 0.00 | 92 | 1028.1 | |
| 20260906014028 | 54 | 0.0 | 0.0 | 0.00 | 0.00 | 0.00 | 93 | 1028.1 | |
| 20260906013025 | 54 | 0.0 | 0.0 | 0.00 | 0.00 | 0.00 | 92 | 1027.9 | |
| 20260906012022 | 53 | 0.0 | 0.0 | 0.00 | 0.00 | 0.00 | 92 | 1028.1 | |
| 20260906011020 | 54 | 0.0 | 0.0 | 0.00 | 0.00 | 0.00 | 92 | 1028.0 | |
| 20260906010017 | 53 | 0.0 | 0.0 | 0.00 | 0.00 | 0.00 | 92 | 1028.0 | |
| 20260906005045 | 53 | 0.0 | 0.0 | 0.00 | 0.00 | 0.00 | 92 | 1027.8 | |
| 20260906004042 | 53 | 0.0 | 0.0 | 0.00 | 0.00 | 0.00 | 92 | 1027.8 | |
| 20260906003038 | 53 | 0.0 | 0.0 | 0.00 | 0.00 | 0.00 | 92 | 1027.7 | |
| 20260906002035 | 53 | 0.0 | 0.0 | 0.00 | 0.00 | 0.00 | 93 | 1027.7 | |
| 20260906001052 | 52 | 0.0 | 0.0 | 0.00 | 0.00 | 0.00 | 92 | 1027.8 | |
| 20260906000029 | 52 | 0.0 | 0.0 | 0.00 | 0.00 | 0.00 | 91 | 1027.9 | |
| 20260905235026 | 53 | 0.0 | 0.0 | 0.00 | 0.00 | 0.00 | 91 | 1027.9 | |
| 20260905234023 | 53 | 0.0 | 0.0 | 0.00 | 0.00 | 0.00 | 91 | 1027.8 | |
| 20260905233020 | 53 | 0.0 | 0.0 | 0.00 | 0.00 | 0.00 | 91 | 1027.9 | |
| 20260905232017 | 53 | 190 | 1.0 | 2.0 | 0.00 | 0.00 | 0.00 | 90 | 1027.8 |
| 20260905231044 | 52 | 191 | 3.0 | 3.0 | 0.00 | 0.00 | 0.00 | 91 | 1027.7 |
| 20260905230042 | 53 | 187 | 2.0 | 2.0 | 0.00 | 0.00 | 0.00 | 90 | 1027.7 |
| 20260905225038 | 52 | 197 | 2.0 | 2.0 | 0.00 | 0.00 | 0.00 | 91 | 1027.7 |
| 20260905224034 | 53 | 0.0 | 0.0 | 0.00 | 0.00 | 0.00 | 90 | 1027.7 | |
| 20260905223031 | 53 | 185 | 3.0 | 4.0 | 0.00 | 0.00 | 0.00 | 89 | 1027.5 |
| 20260905222028 | 54 | 0.0 | 0.0 | 0.00 | 0.00 | 0.00 | 88 | 1027.6 | |
| 20260905221025 | 54 | 0.0 | 0.0 | 0.00 | 0.00 | 0.00 | 87 | 1027.4 | |
| 20260905220022 | 55 | 191 | 1.0 | 1.0 | 0.00 | 0.00 | 0.00 | 85 | 1027.4 |
| 20260905215019 | 55 | 181 | 2.0 | 2.0 | 0.00 | 0.00 | 0.00 | 85 | 1027.4 |
| 20260905214016 | 55 | 195 | 1.0 | 2.0 | 0.00 | 0.00 | 0.00 | 84 | 1027.2 |
| 20260905213043 | 55 | 189 | 1.0 | 2.0 | 0.00 | 0.00 | 0.00 | 83 | 1027.3 |
| 20260905212040 | 56 | 189 | 2.0 | 2.0 | 0.00 | 0.00 | 0.00 | 83 | 1027.3 |
| 20260905211037 | 56 | 0.0 | 0.0 | 0.00 | 0.00 | 0.00 | 83 | 1027.0 | |
| 20260905210034 | 55 | 193 | 1.0 | 1.0 | 0.00 | 0.00 | 0.00 | 85 | 1027.0 |
| 20260905205031 | 55 | 193 | 0.0 | 1.0 | 0.00 | 0.00 | 0.00 | 86 | 1027.1 |
| 20260905204028 | 54 | 195 | 1.0 | 2.0 | 0.00 | 0.00 | 0.00 | 87 | 1026.9 |
| 20260905203025 | 55 | 194 | 3.0 | 3.0 | 0.00 | 0.00 | 0.00 | 85 | 1027.0 |
| 20260905202022 | 56 | 193 | 3.0 | 3.0 | 0.00 | 0.00 | 0.00 | 83 | 1027.1 |
| 20260905201020 | 57 | 0.0 | 0.0 | 0.00 | 0.00 | 0.00 | 80 | 1026.8 | |
| 20260905200017 | 57 | 0.0 | 0.0 | 0.00 | 0.00 | 0.00 | 80 | 1026.9 | |
| 20260905195044 | 58 | 0.0 | 0.0 | 0.00 | 0.00 | 0.00 | 79 | 1026.8 | |
| 20260905194041 | 58 | 0.0 | 0.0 | 0.00 | 0.00 | 0.00 | 78 | 1026.9 | |
| 20260905193039 | 58 | 0.0 | 0.0 | 0.00 | 0.00 | 0.00 | 78 | 1026.9 | |
| 20260905192036 | 58 | 212 | 0.0 | 1.0 | 0.00 | 0.00 | 0.00 | 77 | 1026.7 |
| 20260905191034 | 58 | 0.0 | 0.0 | 0.00 | 0.00 | 0.00 | 77 | 1026.7 | |
| 20260905190029 | 58 | 0.0 | 0.0 | 0.00 | 0.00 | 0.00 | 77 | 1026.5 | |
| 20260905185026 | 58 | 182 | 2.0 | 3.0 | 0.00 | 0.00 | 0.00 | 76 | 1026.5 |
| 20260905184043 | 58 | 170 | 3.0 | 4.0 | 0.00 | 0.00 | 0.00 | 75 | 1026.3 |
| 20260905183020 | 59 | 304 | 3.0 | 4.0 | 0.00 | 0.00 | 0.00 | 74 | 1026.5 |
| 20260905182018 | 59 | 305 | 5.0 | 7.0 | 0.00 | 0.00 | 0.00 | 73 | 1026.3 |
| 20260905181044 | 60 | 300 | 5.0 | 7.0 | 0.00 | 0.00 | 0.00 | 74 | 1026.2 |
| 20260905180100 | 61 | 233 | 3.0 | 4.0 | 0.00 | 0.00 | 0.00 | 73 | 1026.1 |
| 20260905175058 | 61 | 270 | 5.0 | 7.0 | 0.00 | 0.00 | 0.00 | 73 | 1026.1 |
| 20260905174035 | 62 | 306 | 6.0 | 8.0 | 0.00 | 0.00 | 0.00 | 71 | 1026.2 |
| 20260905173032 | 63 | 283 | 9.0 | 11.0 | 0.00 | 0.00 | 0.00 | 72 | 1026.1 |
| 20260905172029 | 63 | 292 | 7.0 | 9.0 | 0.00 | 0.00 | 0.00 | 73 | 1025.8 |
| 20260905171026 | 63 | 281 | 7.0 | 9.0 | 0.00 | 0.00 | 0.00 | 71 | 1025.9 |
| 20260905170023 | 64 | 258 | 7.0 | 11.0 | 0.00 | 0.00 | 0.00 | 71 | 1025.8 |
| 20260905165020 | 63 | 285 | 7.0 | 9.0 | 0.00 | 0.00 | 0.00 | 74 | 1025.7 |
| 20260905164017 | 62 | 285 | 7.0 | 8.0 | 0.00 | 0.00 | 0.00 | 76 | 1025.6 |
| 20260905163105 | 62 | 276 | 5.0 | 7.0 | 0.00 | 0.00 | 0.00 | 76 | 1025.6 |
| 20260905162042 | 62 | 295 | 9.0 | 11.0 | 0.00 | 0.00 | 0.00 | 76 | 1025.4 |
| 20260905161039 | 62 | 244 | 7.0 | 10.0 | 0.00 | 0.00 | 0.00 | 75 | 1025.2 |
| 20260905160036 | 62 | 287 | 10.0 | 13.0 | 0.00 | 0.00 | 0.00 | 75 | 1025.3 |
| 20260905155033 | 63 | 258 | 8.0 | 11.0 | 0.00 | 0.00 | 0.00 | 72 | 1025.0 |
| 20260905154030 | 63 | 315 | 9.0 | 13.0 | 0.00 | 0.00 | 0.00 | 72 | 1024.7 |
| 20260905153027 | 64 | 303 | 11.0 | 16.0 | 0.00 | 0.01 | 0.00 | 71 | 1024.7 |
| 20260905152024 | 64 | 326 | 10.0 | 14.0 | 0.00 | 0.01 | 0.00 | 68 | 1024.7 |
| 20260905151041 | 65 | 283 | 9.0 | 11.0 | 0.00 | 0.01 | 0.00 | 67 | 1024.5 |
| 20260905150019 | 64 | 325 | 12.0 | 14.0 | 0.00 | 0.01 | 0.00 | 69 | 1024.6 |
| 20260905145035 | 65 | 288 | 8.0 | 13.0 | 0.00 | 0.01 | 0.00 | 71 | 1024.4 |
| 20260905144042 | 64 | 287 | 12.0 | 16.0 | 0.00 | 0.01 | 0.00 | 72 | 1024.4 |
| 20260905143040 | 64 | 276 | 13.0 | 16.0 | 0.00 | 0.01 | 0.00 | 70 | 1024.3 |
| 20260905142036 | 64 | 306 | 10.0 | 14.0 | 0.00 | 0.01 | 0.00 | 69 | 1024.0 |
| 20260905141034 | 64 | 283 | 16.0 | 19.0 | 0.00 | 0.01 | 0.00 | 69 | 1024.2 |
| 20260905140031 | 64 | 285 | 9.0 | 13.0 | 0.00 | 0.01 | 0.00 | 72 | 1023.8 |
| 20260905135028 | 64 | 271 | 15.0 | 18.0 | 0.00 | 0.01 | 0.00 | 71 | 1023.8 |
| 20260905134105 | 64 | 295 | 11.0 | 14.0 | 0.00 | 0.01 | 0.00 | 70 | 1023.8 |
| 20260905133022 | 65 | 283 | 6.0 | 10.0 | 0.00 | 0.01 | 0.00 | 70 | 1023.6 |
| 20260905132039 | 65 | 284 | 12.0 | 16.0 | 0.00 | 0.01 | 0.00 | 68 | 1023.6 |
| 20260905131016 | 65 | 276 | 9.0 | 13.0 | 0.00 | 0.01 | 0.00 | 64 | 1023.5 |
| 20260905130043 | 65 | 315 | 13.0 | 19.0 | 0.00 | 0.01 | 0.00 | 69 | 1023.4 |
| 20260905125041 | 65 | 254 | 14.0 | 18.0 | 0.00 | 0.01 | 0.00 | 70 | 1023.3 |
| 20260905124038 | 65 | 288 | 14.0 | 19.0 | 0.00 | 0.01 | 0.00 | 71 | 1023.1 |
| 20260905123035 | 66 | 317 | 15.0 | 17.0 | 0.00 | 0.01 | 0.00 | 69 | 1023.2 |
| 20260905122033 | 64 | 287 | 15.0 | 19.0 | 0.00 | 0.01 | 0.00 | 72 | 1023.0 |
| 20260905121030 | 65 | 278 | 11.0 | 16.0 | 0.00 | 0.01 | 0.00 | 73 | 1023.0 |
| 20260905120028 | 64 | 269 | 13.0 | 18.0 | 0.00 | 0.01 | 0.00 | 71 | 1022.6 |
| 20260905115045 | 66 | 269 | 10.0 | 16.0 | 0.00 | 0.01 | 0.00 | 69 | 1022.5 |
| 20260905114023 | 64 | 269 | 8.0 | 11.0 | 0.00 | 0.01 | 0.00 | 70 | 1022.5 |
| 20260905113020 | 64 | 273 | 14.0 | 18.0 | 0.00 | 0.01 | 0.00 | 71 | 1022.5 |
| 20260905112017 | 65 | 272 | 13.0 | 17.0 | 0.00 | 0.01 | 0.00 | 71 | 1022.2 |
| 20260905111045 | 65 | 271 | 15.0 | 18.0 | 0.00 | 0.01 | 0.00 | 69 | 1021.9 |
| 20260905110042 | 65 | 272 | 10.0 | 15.0 | 0.00 | 0.01 | 0.00 | 69 | 1022.0 |
| 20260905105059 | 66 | 247 | 10.0 | 13.0 | 0.00 | 0.01 | 0.00 | 71 | 1021.8 |
| 20260905104036 | 64 | 312 | 14.0 | 19.0 | 0.00 | 0.01 | 0.00 | 72 | 1021.9 |
| 20260905103034 | 64 | 337 | 16.0 | 22.0 | 0.00 | 0.01 | 0.00 | 72 | 1021.7 |
| 20260905102050 | 64 | 274 | 16.0 | 19.0 | 0.00 | 0.01 | 0.00 | 72 | 1021.5 |
| 20260905101027 | 64 | 282 | 16.0 | 21.0 | 0.00 | 0.01 | 0.00 | 72 | 1021.3 |
| 20260905100044 | 65 | 254 | 8.0 | 14.0 | 0.00 | 0.01 | 0.00 | 71 | 1021.3 |
| 20260905095021 | 64 | 236 | 13.0 | 15.0 | 0.00 | 0.01 | 0.00 | 73 | 1021.1 |
| 20260905094018 | 64 | 273 | 12.0 | 16.0 | 0.00 | 0.01 | 0.00 | 74 | 1021.1 |
| 20260905093044 | 63 | 276 | 7.0 | 9.0 | 0.00 | 0.01 | 0.00 | 75 | 1020.8 |
| 20260905092041 | 63 | 270 | 9.0 | 13.0 | 0.00 | 0.01 | 0.00 | 77 | 1020.6 |
| 20260905091039 | 63 | 288 | 9.0 | 11.0 | 0.00 | 0.01 | 0.00 | 77 | 1020.6 |
| 20260905090036 | 63 | 277 | 12.0 | 14.0 | 0.00 | 0.01 | 0.00 | 75 | 1020.4 |
| 20260905085034 | 63 | 270 | 13.0 | 17.0 | 0.00 | 0.01 | 0.00 | 75 | 1020.4 |
| 20260905084031 | 64 | 249 | 8.0 | 13.0 | 0.00 | 0.01 | 0.00 | 71 | 1020.2 |
| 20260905083028 | 64 | 282 | 12.0 | 19.0 | 0.00 | 0.01 | 0.00 | 71 | 1020.0 |
| 20260905082026 | 63 | 230 | 9.0 | 14.0 | 0.00 | 0.01 | 0.00 | 75 | 1019.9 |
| 20260905081043 | 63 | 285 | 11.0 | 13.0 | 0.00 | 0.01 | 0.00 | 75 | 1019.7 |
| 20260905080021 | 63 | 277 | 16.0 | 22.0 | 0.00 | 0.01 | 0.00 | 77 | 1019.6 |
| 20260905075038 | 64 | 268 | 8.0 | 10.0 | 0.00 | 0.01 | 0.00 | 76 | 1019.3 |
| 20260905074016 | 63 | 276 | 11.0 | 16.0 | 0.00 | 0.01 | 0.00 | 75 | 1019.1 |
| 20260905073043 | 64 | 313 | 12.0 | 18.0 | 0.00 | 0.01 | 0.00 | 74 | 1019.2 |
| 20260905072041 | 64 | 283 | 11.0 | 14.0 | 0.00 | 0.01 | 0.00 | 75 | 1018.9 |
| 20260905071038 | 64 | 289 | 7.0 | 13.0 | 0.00 | 0.01 | 0.00 | 78 | 1018.8 |